User: anonymous   Login
Location: Killam
(52.7910°N, 111.8608°W)
Time: 08:27:20
(UTC+00:00)
Language:

FENGYUN 1C DEB - Orbit

View from above orbital plane
View from above orbital plane
View from above satellite
View from above satellite

Ground track
Ground track

The orbit data is extracted from the following two-line orbital elements,

1 31250U 99025BMG 24146.15251183  .00002766  00000-0  17626-2 0  9994
2 31250  98.4449  33.6662 0135140  92.6859 268.9784 13.99964802875803
Epoch (UTC): 25 May 2024 03:39:37
Eccentricity: 0.0135140
inclination: 98.4449°
perigee height: 795 km
apogee height: 992 km
right ascension of ascending node: 33.6662°
argument of perigee: 92.6859°
revolutions per day: 13.99964802
mean anomaly at epoch: 268.9784°
orbit number at epoch: 87580

The dashed part of the orbit path shows where the satellite is in the earth's shadow,  

DLR